| time (UTC) | temp F | wind direction | speed MPH | gust MPH | rain 1hr in | rain 24hr in | rain mn in | humidity % | barometer mb |
| 20260506015509 | 52 | 270 | 0.0 | 0.0 | 0.00 | 0.00 | 0.00 | 46 | 994.9 |
| 20260506015351 | 52 | 270 | 0.0 | 0.0 | 0.00 | 0.00 | 0.00 | 46 | 994.9 |
| 20260506015008 | 52 | 315 | 0.0 | 0.0 | 0.00 | 0.00 | 0.00 | 46 | 994.6 |
| 20260506014509 | 52 | 270 | 0.0 | 0.0 | 0.00 | 0.00 | 0.00 | 46 | 994.5 |
| 20260506014009 | 52 | 0 | 0.0 | 0.0 | 0.00 | 0.00 | 0.00 | 46 | 994.4 |
| 20260506013850 | 52 | 293 | 0.0 | 0.0 | 0.00 | 0.00 | 0.00 | 46 | 994.4 |
| 20260506013009 | 53 | 338 | 0.0 | 0.0 | 0.00 | 0.00 | 0.00 | 45 | 994.5 |
| 20260506012509 | 53 | 293 | 0.0 | 0.0 | 0.00 | 0.00 | 0.00 | 45 | 994.2 |
| 20260506012350 | 53 | 315 | 0.0 | 0.0 | 0.00 | 0.00 | 0.00 | 45 | 994.2 |
| 20260506012008 | 53 | 293 | 0.0 | 0.0 | 0.00 | 0.00 | 0.00 | 45 | 994.2 |
| 20260506011008 | 53 | 270 | 0.0 | 0.0 | 0.00 | 0.00 | 0.00 | 44 | 994.1 |
| 20260506010851 | 53 | 270 | 0.0 | 0.0 | 0.00 | 0.00 | 0.00 | 44 | 994.2 |
| 20260506010507 | 53 | 293 | 0.0 | 0.0 | 0.00 | 0.00 | 0.00 | 44 | 993.9 |
| 20260506005509 | 54 | 293 | 0.0 | 0.0 | 0.00 | 0.00 | 0.00 | 43 | 993.9 |
| 20260506005350 | 54 | 293 | 0.0 | 0.0 | 0.00 | 0.00 | 0.00 | 43 | 993.9 |
| 20260506005009 | 54 | 270 | 0.0 | 0.0 | 0.00 | 0.00 | 0.00 | 43 | 993.9 |
| 20260506004009 | 54 | 270 | 0.0 | 0.0 | 0.00 | 0.00 | 0.00 | 43 | 993.9 |
| 20260506003850 | 54 | 270 | 0.0 | 0.0 | 0.00 | 0.00 | 0.00 | 43 | 993.9 |
| 20260506003508 | 55 | 270 | 0.0 | 0.0 | 0.00 | 0.00 | 0.00 | 42 | 993.9 |
| 20260506002509 | 55 | 270 | 0.0 | 0.0 | 0.00 | 0.00 | 0.00 | 42 | 993.9 |
| 20260506002350 | 55 | 270 | 0.0 | 0.0 | 0.00 | 0.00 | 0.00 | 42 | 993.9 |
| 20260506002009 | 55 | 270 | 0.0 | 0.0 | 0.00 | 0.00 | 0.00 | 42 | 993.9 |
| 20260506001508 | 55 | 293 | 0.0 | 0.0 | 0.00 | 0.00 | 0.00 | 42 | 993.8 |
| 20260506001009 | 55 | 270 | 0.0 | 0.0 | 0.00 | 0.00 | 0.00 | 42 | 993.5 |
| 20260506000850 | 56 | 270 | 0.0 | 0.0 | 0.00 | 0.00 | 0.00 | 42 | 993.5 |
| 20260506000009 | 56 | 293 | 0.0 | 0.0 | 0.00 | 0.00 | 0.00 | 41 | 993.3 |
| 20260505235508 | 56 | 315 | 0.0 | 0.0 | 0.00 | 0.00 | 0.00 | 41 | 993.2 |
| 20260505235351 | 56 | 315 | 0.0 | 0.0 | 0.00 | 0.00 | 0.00 | 41 | 993.2 |
| 20260505234508 | 56 | 293 | 0.0 | 0.0 | 0.00 | 0.00 | 0.00 | 40 | 993.3 |
| 20260505234008 | 57 | 270 | 0.0 | 0.0 | 0.00 | 0.00 | 0.00 | 40 | 993.2 |
| 20260505233851 | 57 | 293 | 0.0 | 0.0 | 0.00 | 0.00 | 0.00 | 40 | 993.2 |
| 20260505233507 | 57 | 270 | 0.0 | 0.0 | 0.00 | 0.00 | 0.00 | 40 | 993.2 |
| 20260505233009 | 57 | 270 | 0.0 | 0.0 | 0.00 | 0.00 | 0.00 | 40 | 993.1 |
| 20260505232350 | 57 | 248 | 0.0 | 0.0 | 0.00 | 0.00 | 0.00 | 40 | 992.8 |
| 20260505232009 | 57 | 270 | 0.0 | 0.0 | 0.00 | 0.00 | 0.00 | 40 | 992.9 |
| 20260505231508 | 57 | 248 | 0.0 | 0.0 | 0.00 | 0.00 | 0.00 | 40 | 993.2 |
| 20260505231009 | 58 | 270 | 0.0 | 0.0 | 0.00 | 0.00 | 0.00 | 39 | 993.0 |
| 20260505230850 | 58 | 270 | 0.0 | 0.0 | 0.00 | 0.00 | 0.00 | 39 | 993.2 |
| 20260505230509 | 58 | 248 | 0.0 | 0.0 | 0.00 | 0.00 | 0.00 | 39 | 993.2 |
| 20260505230008 | 58 | 270 | 0.0 | 0.0 | 0.00 | 0.00 | 0.00 | 39 | 992.9 |
| 20260505225508 | 58 | 270 | 0.0 | 0.0 | 0.00 | 0.00 | 0.00 | 39 | 993.2 |
| 20260505225350 | 58 | 225 | 0.0 | 0.0 | 0.00 | 0.00 | 0.00 | 39 | 993.2 |
| 20260505224508 | 59 | 270 | 0.0 | 0.0 | 0.00 | 0.00 | 0.00 | 38 | 993.2 |
| 20260505223851 | 59 | 248 | 0.0 | 0.0 | 0.00 | 0.00 | 0.00 | 38 | 993.2 |
| 20260505223507 | 59 | 248 | 0.0 | 0.0 | 0.00 | 0.00 | 0.00 | 37 | 993.2 |
| 20260505222508 | 59 | 248 | 0.0 | 0.0 | 0.00 | 0.00 | 0.00 | 38 | 993.2 |
| 20260505222351 | 59 | 248 | 0.0 | 0.0 | 0.00 | 0.00 | 0.00 | 38 | 993.2 |
| 20260505221509 | 59 | 293 | 0.0 | 0.0 | 0.00 | 0.00 | 0.00 | 38 | 993.1 |
| 20260505220850 | 60 | 270 | 0.0 | 0.0 | 0.00 | 0.00 | 0.00 | 37 | 992.9 |
| 20260505220509 | 60 | 270 | 0.0 | 0.0 | 0.00 | 0.00 | 0.00 | 37 | 993.1 |
| 20260505215509 | 60 | 293 | 0.0 | 0.0 | 0.00 | 0.00 | 0.00 | 37 | 993.2 |
| 20260505215350 | 60 | 248 | 0.0 | 0.0 | 0.00 | 0.00 | 0.00 | 37 | 993.2 |
| 20260505215010 | 60 | 270 | 0.0 | 0.0 | 0.00 | 0.00 | 0.00 | 37 | 993.2 |
| 20260505214508 | 61 | 270 | 0.0 | 0.0 | 0.00 | 0.00 | 0.00 | 37 | 992.9 |
| 20260505214009 | 61 | 270 | 0.0 | 0.0 | 0.00 | 0.00 | 0.00 | 37 | 992.9 |
| 20260505213851 | 61 | 248 | 0.0 | 0.0 | 0.00 | 0.00 | 0.00 | 37 | 992.8 |
| 20260505213509 | 61 | 225 | 0.0 | 0.0 | 0.00 | 0.00 | 0.00 | 37 | 992.9 |
| 20260505212509 | 61 | 315 | 0.0 | 0.0 | 0.00 | 0.00 | 0.00 | 37 | 992.8 |
| 20260505212351 | 61 | 293 | 0.0 | 0.0 | 0.00 | 0.00 | 0.00 | 37 | 993.0 |
| 20260505212008 | 61 | 248 | 0.0 | 0.0 | 0.00 | 0.00 | 0.00 | 37 | 993.1 |
| 20260505211508 | 61 | 248 | 0.0 | 0.0 | 0.00 | 0.00 | 0.00 | 38 | 992.9 |
| 20260505210850 | 61 | 270 | 0.0 | 0.0 | 0.00 | 0.00 | 0.00 | 37 | 993.2 |
| 20260505210508 | 61 | 293 | 0.0 | 0.0 | 0.00 | 0.00 | 0.00 | 37 | 993.1 |
| 20260505210009 | 61 | 248 | 0.0 | 0.0 | 0.00 | 0.00 | 0.00 | 36 | 993.2 |
| 20260505205508 | 61 | 315 | 0.0 | 0.0 | 0.00 | 0.00 | 0.00 | 36 | 993.2 |
| 20260505205351 | 61 | 315 | 0.0 | 0.0 | 0.00 | 0.00 | 0.00 | 37 | 993.2 |
| 20260505205009 | 62 | 270 | 0.0 | 0.0 | 0.00 | 0.00 | 0.00 | 37 | 993.2 |
| 20260505204508 | 62 | 293 | 0.0 | 0.0 | 0.00 | 0.00 | 0.00 | 37 | 992.9 |
| 20260505204008 | 62 | 270 | 0.0 | 0.0 | 0.00 | 0.00 | 0.00 | 38 | 992.8 |
| 20260505203851 | 62 | 248 | 0.0 | 0.0 | 0.00 | 0.00 | 0.00 | 38 | 992.8 |
| 20260505203509 | 62 | 293 | 0.0 | 0.0 | 0.00 | 0.00 | 0.00 | 38 | 992.8 |
| 20260505202508 | 62 | 270 | 0.0 | 0.0 | 0.00 | 0.00 | 0.00 | 38 | 993.1 |
| 20260505202351 | 62 | 270 | 0.0 | 0.0 | 0.00 | 0.00 | 0.00 | 38 | 993.1 |
| 20260505202008 | 62 | 270 | 0.0 | 0.0 | 0.00 | 0.00 | 0.00 | 38 | 992.9 |
| 20260505201510 | 63 | 270 | 0.0 | 0.0 | 0.00 | 0.00 | 0.00 | 38 | 993.2 |
| 20260505201008 | 63 | 270 | 0.0 | 0.0 | 0.00 | 0.00 | 0.00 | 40 | 993.2 |
| 20260505200851 | 63 | 270 | 0.0 | 0.0 | 0.00 | 0.00 | 0.00 | 40 | 993.2 |
| 20260505200508 | 63 | 225 | 0.0 | 0.0 | 0.00 | 0.00 | 0.00 | 39 | 992.8 |
| 20260505200009 | 63 | 180 | 0.0 | 0.0 | 0.00 | 0.00 | 0.00 | 40 | 992.8 |
| 20260505195508 | 62 | 225 | 0.0 | 0.0 | 0.00 | 0.00 | 0.00 | 40 | 992.8 |
| 20260505195351 | 62 | 248 | 0.0 | 0.0 | 0.00 | 0.00 | 0.00 | 40 | 992.8 |
| 20260505195009 | 62 | 248 | 0.0 | 0.0 | 0.00 | 0.00 | 0.00 | 40 | 992.8 |
| 20260505194009 | 62 | 248 | 0.0 | 0.0 | 0.00 | 0.00 | 0.00 | 41 | 993.1 |
| 20260505193850 | 62 | 248 | 0.0 | 0.0 | 0.00 | 0.00 | 0.00 | 40 | 992.8 |
| 20260505193508 | 62 | 315 | 0.0 | 0.0 | 0.00 | 0.00 | 0.00 | 40 | 992.8 |
| 20260505193010 | 62 | 270 | 0.0 | 0.0 | 0.00 | 0.00 | 0.00 | 40 | 992.8 |
| 20260505192509 | 62 | 203 | 0.0 | 0.0 | 0.00 | 0.00 | 0.00 | 40 | 992.8 |
| 20260505192351 | 62 | 270 | 0.0 | 0.0 | 0.00 | 0.00 | 0.00 | 40 | 992.8 |
| 20260505192008 | 62 | 293 | 0.0 | 0.0 | 0.00 | 0.00 | 0.00 | 40 | 992.8 |
| 20260505191508 | 63 | 248 | 0.0 | 0.0 | 0.00 | 0.00 | 0.00 | 41 | 992.8 |
| 20260505191008 | 63 | 270 | 0.0 | 0.0 | 0.00 | 0.00 | 0.00 | 41 | 992.8 |
| 20260505190851 | 63 | 270 | 0.0 | 0.0 | 0.00 | 0.00 | 0.00 | 42 | 992.8 |
| 20260505190508 | 63 | 270 | 0.0 | 0.0 | 0.00 | 0.00 | 0.00 | 42 | 992.8 |
| 20260505190008 | 63 | 293 | 0.0 | 0.0 | 0.00 | 0.00 | 0.00 | 42 | 992.8 |
| 20260505185508 | 63 | 270 | 0.0 | 0.0 | 0.00 | 0.00 | 0.00 | 41 | 992.9 |
| 20260505185351 | 63 | 270 | 0.0 | 0.0 | 0.00 | 0.00 | 0.00 | 41 | 992.8 |
| 20260505185008 | 63 | 180 | 0.0 | 0.0 | 0.00 | 0.00 | 0.00 | 42 | 992.9 |
| 20260505184009 | 63 | 225 | 0.0 | 0.0 | 0.00 | 0.00 | 0.00 | 44 | 992.8 |
| 20260505183852 | 63 | 270 | 0.0 | 0.0 | 0.00 | 0.00 | 0.00 | 45 | 992.8 |
| 20260505183508 | 63 | 225 | 0.0 | 0.0 | 0.00 | 0.00 | 0.00 | 44 | 992.8 |
| 20260505183009 | 63 | 270 | 0.0 | 0.0 | 0.00 | 0.00 | 0.00 | 45 | 992.6 |
| 20260505182508 | 63 | 248 | 0.0 | 0.0 | 0.00 | 0.00 | 0.00 | 46 | 992.6 |
| 20260505182351 | 63 | 270 | 0.0 | 0.0 | 0.00 | 0.00 | 0.00 | 46 | 992.6 |
| 20260505182008 | 62 | 293 | 0.0 | 0.0 | 0.00 | 0.00 | 0.00 | 46 | 992.5 |
| 20260505181509 | 62 | 248 | 0.0 | 0.0 | 0.00 | 0.00 | 0.00 | 46 | 992.5 |
| 20260505181010 | 62 | 248 | 0.0 | 0.0 | 0.00 | 0.00 | 0.00 | 46 | 992.5 |
| 20260505180851 | 62 | 315 | 0.0 | 0.0 | 0.00 | 0.00 | 0.00 | 47 | 992.5 |
| 20260505180508 | 62 | 293 | 0.0 | 0.0 | 0.00 | 0.00 | 0.00 | 47 | 992.2 |
| 20260505180010 | 63 | 270 | 0.0 | 0.0 | 0.00 | 0.00 | 0.00 | 47 | 992.3 |
| 20260505175508 | 63 | 315 | 0.0 | 0.0 | 0.00 | 0.00 | 0.00 | 49 | 992.2 |
| 20260505175350 | 63 | 248 | 0.0 | 0.0 | 0.00 | 0.00 | 0.00 | 49 | 992.2 |
| 20260505174509 | 61 | 248 | 0.0 | 0.0 | 0.00 | 0.00 | 0.00 | 50 | 992.2 |
| 20260505174009 | 61 | 203 | 0.0 | 0.0 | 0.00 | 0.00 | 0.00 | 50 | 992.2 |
| 20260505173850 | 61 | 315 | 0.0 | 0.0 | 0.00 | 0.00 | 0.00 | 50 | 992.2 |
| 20260505173509 | 61 | 248 | 0.0 | 0.0 | 0.00 | 0.00 | 0.00 | 50 | 992.4 |
| 20260505173009 | 60 | 270 | 0.0 | 0.0 | 0.00 | 0.00 | 0.00 | 51 | 992.4 |
| 20260505172508 | 60 | 315 | 0.0 | 0.0 | 0.00 | 0.00 | 0.00 | 51 | 992.2 |
| 20260505172352 | 60 | 225 | 0.0 | 0.0 | 0.00 | 0.00 | 0.00 | 51 | 992.2 |
| 20260505172008 | 60 | 293 | 0.0 | 0.0 | 0.00 | 0.00 | 0.00 | 51 | 992.2 |
| 20260505171508 | 60 | 293 | 0.0 | 0.0 | 0.00 | 0.00 | 0.00 | 50 | 992.5 |
| 20260505170850 | 60 | 315 | 0.0 | 0.0 | 0.00 | 0.00 | 0.00 | 51 | 992.3 |
| 20260505170009 | 60 | 270 | 0.0 | 0.0 | 0.00 | 0.00 | 0.00 | 51 | 992.2 |
| 20260505165509 | 60 | 248 | 0.0 | 0.0 | 0.00 | 0.00 | 0.00 | 51 | 992.2 |
| 20260505165351 | 60 | 270 | 0.0 | 0.0 | 0.00 | 0.00 | 0.00 | 51 | 992.3 |
| 20260505164509 | 60 | 225 | 0.0 | 0.0 | 0.00 | 0.00 | 0.00 | 51 | 992.5 |
| 20260505163850 | 60 | 270 | 0.0 | 0.0 | 0.00 | 0.00 | 0.00 | 52 | 992.8 |
| 20260505163509 | 59 | 293 | 0.0 | 0.0 | 0.00 | 0.00 | 0.00 | 52 | 992.8 |
| 20260505162509 | 59 | 293 | 0.0 | 0.0 | 0.00 | 0.00 | 0.00 | 52 | 992.8 |
| 20260505162350 | 59 | 203 | 0.0 | 0.0 | 0.00 | 0.00 | 0.00 | 52 | 992.8 |
| 20260505162009 | 59 | 203 | 0.0 | 0.0 | 0.00 | 0.00 | 0.00 | 53 | 992.8 |
| 20260505161509 | 59 | 225 | 0.0 | 0.0 | 0.00 | 0.00 | 0.00 | 54 | 992.8 |
| 20260505161008 | 58 | 270 | 0.0 | 0.0 | 0.00 | 0.00 | 0.00 | 55 | 992.8 |
| 20260505160851 | 58 | 248 | 0.0 | 0.0 | 0.00 | 0.00 | 0.00 | 55 | 992.8 |
| 20260505160509 | 57 | 315 | 0.0 | 0.0 | 0.00 | 0.00 | 0.00 | 55 | 992.8 |
| 20260505153009 | 55 | 248 | 0.0 | 0.0 | 0.00 | 0.00 | 0.00 | 58 | 993.0 |
| 20260505152509 | 55 | 225 | 0.0 | 0.0 | 0.00 | 0.00 | 0.00 | 58 | 992.8 |
| 20260505152352 | 55 | 270 | 0.0 | 0.0 | 0.00 | 0.00 | 0.00 | 58 | 992.8 |
| 20260505152010 | 54 | 248 | 0.0 | 0.0 | 0.00 | 0.00 | 0.00 | 59 | 992.8 |
| 20260505151509 | 54 | 270 | 0.0 | 0.0 | 0.00 | 0.00 | 0.00 | 59 | 992.9 |
| 20260505151009 | 54 | 180 | 0.0 | 0.0 | 0.00 | 0.00 | 0.00 | 58 | 992.8 |
| 20260505150852 | 53 | 293 | 0.0 | 0.0 | 0.00 | 0.00 | 0.00 | 59 | 992.8 |
| 20260505150508 | 53 | 293 | 0.0 | 0.0 | 0.00 | 0.00 | 0.00 | 58 | 993.2 |
| 20260505140508 | 52 | 270 | 0.0 | 0.0 | 0.00 | 0.00 | 0.00 | 59 | 992.8 |
| 20260505125009 | 53 | 338 | 0.0 | 0.0 | 0.00 | 0.00 | 0.00 | 60 | 991.1 |
| 20260505124508 | 53 | 0 | 0.0 | 0.0 | 0.00 | 0.00 | 0.00 | 61 | 991.1 |
| 20260505124008 | 53 | 338 | 0.0 | 0.0 | 0.00 | 0.00 | 0.00 | 62 | 991.1 |
| 20260505123851 | 53 | 338 | 0.0 | 0.0 | 0.00 | 0.00 | 0.00 | 62 | 991.1 |
| 20260505123510 | 53 | 338 | 0.0 | 0.0 | 0.00 | 0.00 | 0.00 | 63 | 991.1 |
| 20260505123008 | 53 | 338 | 0.0 | 0.0 | 0.00 | 0.00 | 0.00 | 65 | 991.5 |
| 20260505122510 | 52 | 315 | 0.0 | 0.0 | 0.00 | 0.00 | 0.00 | 67 | 991.5 |
| 20260505122350 | 52 | 315 | 0.0 | 0.0 | 0.00 | 0.00 | 0.00 | 68 | 991.5 |
| 20260505121009 | 50 | 338 | 0.0 | 0.0 | 0.00 | 0.00 | 0.00 | 71 | 990.9 |
| 20260505120850 | 50 | 315 | 0.0 | 0.0 | 0.00 | 0.00 | 0.00 | 71 | 990.8 |
| 20260505120509 | 50 | 0 | 0.0 | 0.0 | 0.00 | 0.00 | 0.00 | 71 | 990.8 |
| 20260505115509 | 49 | 23 | 0.0 | 0.0 | 0.00 | 0.00 | 0.00 | 73 | 990.6 |
| 20260505115352 | 49 | 0 | 0.0 | 0.0 | 0.00 | 0.00 | 0.00 | 73 | 990.6 |
| 20260505115009 | 49 | 0 | 0.0 | 0.0 | 0.00 | 0.00 | 0.00 | 73 | 990.6 |
| 20260505114510 | 49 | 338 | 0.0 | 0.0 | 0.00 | 0.00 | 0.00 | 73 | 990.5 |
| 20260505114009 | 49 | 338 | 0.0 | 0.0 | 0.00 | 0.00 | 0.00 | 73 | 990.8 |
| 20260505113850 | 49 | 338 | 0.0 | 0.0 | 0.00 | 0.00 | 0.00 | 74 | 990.8 |
| 20260505113508 | 49 | 338 | 0.0 | 0.0 | 0.00 | 0.00 | 0.00 | 74 | 990.5 |
| 20260505112509 | 48 | 338 | 0.0 | 0.0 | 0.00 | 0.00 | 0.00 | 74 | 990.4 |
| 20260505112350 | 48 | 338 | 0.0 | 0.0 | 0.00 | 0.00 | 0.00 | 74 | 990.2 |
| 20260505111508 | 48 | 338 | 0.0 | 0.0 | 0.00 | 0.00 | 0.00 | 74 | 990.1 |
| 20260505111010 | 48 | 338 | 0.0 | 0.0 | 0.00 | 0.00 | 0.00 | 74 | 990.1 |
| 20260505110850 | 48 | 338 | 0.0 | 0.0 | 0.00 | 0.00 | 0.00 | 74 | 989.8 |
| 20260505110509 | 48 | 338 | 0.0 | 0.0 | 0.00 | 0.00 | 0.00 | 74 | 989.8 |
| 20260505102010 | 49 | 338 | 0.0 | 0.0 | 0.00 | 0.00 | 0.00 | 73 | 989.5 |
| 20260505101508 | 49 | 23 | 0.0 | 0.0 | 0.00 | 0.00 | 0.00 | 73 | 989.1 |
| 20260505101008 | 49 | 0 | 0.0 | 0.0 | 0.00 | 0.00 | 0.00 | 72 | 989.1 |
| 20260505100851 | 49 | 0 | 0.0 | 0.0 | 0.00 | 0.00 | 0.00 | 72 | 988.9 |
| 20260505100009 | 49 | 0 | 0.0 | 0.0 | 0.00 | 0.00 | 0.00 | 72 | 988.8 |
| 20260505095509 | 49 | 45 | 0.0 | 0.0 | 0.00 | 0.00 | 0.00 | 71 | 988.8 |
| 20260505095352 | 49 | 45 | 0.0 | 0.0 | 0.00 | 0.00 | 0.00 | 71 | 988.8 |
| 20260505094510 | 49 | 23 | 0.0 | 0.0 | 0.00 | 0.00 | 0.00 | 71 | 988.8 |
| 20260505094009 | 50 | 23 | 0.0 | 0.0 | 0.00 | 0.00 | 0.00 | 71 | 988.4 |
| 20260505093850 | 50 | 23 | 0.0 | 0.0 | 0.00 | 0.00 | 0.00 | 71 | 988.7 |
| 20260505093509 | 50 | 113 | 0.0 | 0.0 | 0.00 | 0.00 | 0.00 | 71 | 988.3 |
| 20260505092510 | 50 | 0 | 0.0 | 0.0 | 0.00 | 0.00 | 0.00 | 71 | 988.1 |
| 20260505092351 | 50 | 45 | 0.0 | 0.0 | 0.00 | 0.00 | 0.00 | 71 | 988.1 |
| 20260505092008 | 50 | 45 | 0.0 | 0.0 | 0.00 | 0.00 | 0.00 | 70 | 988.1 |
| 20260505091509 | 51 | 23 | 0.0 | 0.0 | 0.00 | 0.00 | 0.00 | 70 | 988.0 |
| 20260505090850 | 51 | 45 | 0.0 | 0.0 | 0.00 | 0.00 | 0.00 | 70 | 987.8 |
| 20260505090508 | 51 | 68 | 0.0 | 0.0 | 0.00 | 0.00 | 0.00 | 70 | 987.8 |
| 20260505090008 | 52 | 90 | 0.0 | 0.0 | 0.00 | 0.00 | 0.00 | 69 | 987.8 |
| 20260505085510 | 53 | 23 | 0.0 | 0.0 | 0.00 | 0.00 | 0.00 | 69 | 987.8 |
| 20260505085351 | 53 | 45 | 0.0 | 0.0 | 0.00 | 0.00 | 0.00 | 69 | 987.8 |
| 20260505085009 | 54 | 315 | 0.0 | 0.0 | 0.00 | 0.00 | 0.00 | 69 | 987.2 |
| 20260505084510 | 55 | 338 | 0.0 | 0.0 | 0.00 | 0.00 | 0.00 | 69 | 987.1 |
| 20260505084008 | 57 | 68 | 0.0 | 0.0 | 0.00 | 0.00 | 0.00 | 69 | 986.9 |
| 20260505083851 | 57 | 68 | 0.0 | 0.0 | 0.00 | 0.00 | 0.00 | 68 | 987.1 |
| 20260505083509 | 58 | 23 | 0.0 | 0.0 | 0.00 | 0.00 | 0.00 | 67 | 987.1 |
| 20260505083008 | 59 | 0 | 0.0 | 0.0 | 0.00 | 0.00 | 0.00 | 66 | 987.0 |
| 20260505082510 | 60 | 0 | 0.0 | 0.0 | 0.00 | 0.00 | 0.00 | 64 | 986.7 |
| 20260505082351 | 60 | 293 | 0.0 | 0.0 | 0.00 | 0.00 | 0.00 | 65 | 986.7 |
| 20260505081009 | 60 | 248 | 0.0 | 0.0 | 0.00 | 0.00 | 0.00 | 66 | 986.6 |
| 20260505080851 | 60 | 248 | 0.0 | 0.0 | 0.00 | 0.00 | 0.00 | 67 | 986.2 |
| 20260505080510 | 60 | 270 | 0.0 | 0.0 | 0.00 | 0.00 | 0.00 | 68 | 986.1 |
| 20260505080009 | 61 | 248 | 0.0 | 0.0 | 0.00 | 0.00 | 0.00 | 68 | 986.1 |
| 20260505075509 | 61 | 293 | 0.0 | 0.0 | 0.00 | 0.00 | 0.00 | 69 | 986.1 |
| 20260505075351 | 61 | 270 | 0.0 | 0.0 | 0.00 | 0.00 | 0.00 | 69 | 986.1 |
| 20260505075009 | 61 | 270 | 0.0 | 0.0 | 0.00 | 0.00 | 0.00 | 70 | 985.9 |
| 20260505074508 | 61 | 270 | 0.0 | 0.0 | 0.00 | 0.00 | 0.00 | 70 | 986.1 |
| 20260505074010 | 61 | 270 | 0.0 | 0.0 | 0.00 | 0.00 | 0.00 | 70 | 985.9 |
| 20260505073851 | 61 | 248 | 0.0 | 0.0 | 0.00 | 0.00 | 0.00 | 71 | 985.7 |
| 20260505073509 | 61 | 248 | 0.0 | 0.0 | 0.00 | 0.00 | 0.00 | 70 | 985.7 |
| 20260505073009 | 62 | 293 | 0.0 | 0.0 | 0.00 | 0.00 | 0.00 | 69 | 985.4 |
| 20260505072509 | 62 | 270 | 0.0 | 0.0 | 0.00 | 0.00 | 0.00 | 69 | 985.4 |
| 20260505072352 | 62 | 225 | 0.0 | 0.0 | 0.00 | 0.00 | 0.00 | 69 | 985.4 |
| 20260505072010 | 62 | 270 | 0.0 | 0.0 | 0.00 | 0.00 | 0.00 | 69 | 985.4 |
| 20260505071008 | 62 | 270 | 0.0 | 0.0 | 0.00 | 0.00 | 0.00 | 68 | 985.4 |
| 20260505070852 | 62 | 203 | 0.0 | 0.0 | 0.00 | 0.00 | 0.00 | 68 | 985.4 |
| 20260505070508 | 62 | 270 | 0.0 | 0.0 | 0.00 | 0.00 | 0.00 | 68 | 985.4 |
| 20260505070008 | 62 | 270 | 0.0 | 0.0 | 0.00 | 0.00 | 0.00 | 68 | 985.3 |
| 20260505065508 | 63 | 225 | 0.0 | 0.0 | 0.00 | 0.00 | 0.00 | 67 | 985.4 |
| 20260505065351 | 63 | 248 | 0.0 | 0.0 | 0.00 | 0.00 | 0.00 | 67 | 985.4 |
| 20260505065009 | 63 | 225 | 0.0 | 0.0 | 0.00 | 0.00 | 0.00 | 67 | 985.4 |
| 20260505064509 | 63 | 203 | 0.0 | 0.0 | 0.00 | 0.00 | 0.00 | 66 | 985.4 |
| 20260505064009 | 63 | 248 | 0.0 | 0.0 | 0.00 | 0.00 | 0.00 | 66 | 985.4 |
| 20260505063850 | 63 | 270 | 0.0 | 0.0 | 0.00 | 0.00 | 0.00 | 66 | 985.3 |
| 20260505063509 | 63 | 248 | 0.0 | 0.0 | 0.00 | 0.00 | 0.00 | 66 | 985.1 |
| 20260505063008 | 64 | 270 | 0.0 | 0.0 | 0.00 | 0.00 | 0.00 | 65 | 985.4 |
| 20260505062510 | 64 | 203 | 0.0 | 0.0 | 0.00 | 0.00 | 0.00 | 65 | 985.4 |
| 20260505062351 | 64 | 180 | 0.0 | 0.0 | 0.00 | 0.00 | 0.00 | 65 | 985.4 |
| 20260505062010 | 64 | 180 | 0.0 | 0.0 | 0.00 | 0.00 | 0.00 | 65 | 985.1 |
| 20260505061008 | 64 | 293 | 0.0 | 0.0 | 0.00 | 0.00 | 0.00 | 64 | 985.4 |
| 20260505060850 | 64 | 225 | 0.0 | 0.0 | 0.00 | 0.00 | 0.00 | 64 | 985.4 |
| 20260505060508 | 64 | 203 | 0.0 | 0.0 | 0.00 | 0.00 | 0.00 | 63 | 985.4 |
| 20260505055509 | 65 | 225 | 0.0 | 0.0 | 0.00 | 0.00 | 0.00 | 63 | 985.1 |
| 20260505055352 | 65 | 270 | 0.0 | 0.0 | 0.00 | 0.00 | 0.00 | 63 | 985.4 |
| 20260505054508 | 65 | 135 | 0.0 | 0.0 | 0.00 | 0.00 | 0.00 | 62 | 985.1 |
| 20260505054010 | 65 | 248 | 0.0 | 0.0 | 0.00 | 0.00 | 0.00 | 62 | 985.1 |
| 20260505053851 | 65 | 203 | 0.0 | 0.0 | 0.00 | 0.00 | 0.00 | 62 | 985.1 |
| 20260505053510 | 65 | 203 | 0.0 | 0.0 | 0.00 | 0.00 | 0.00 | 62 | 985.1 |
| 20260505053009 | 65 | 203 | 0.0 | 0.0 | 0.00 | 0.00 | 0.00 | 62 | 985.1 |
| 20260505052510 | 65 | 225 | 0.0 | 0.0 | 0.00 | 0.00 | 0.00 | 62 | 985.2 |
| 20260505052351 | 65 | 203 | 0.0 | 0.0 | 0.00 | 0.00 | 0.00 | 62 | 985.1 |
| 20260505052009 | 65 | 248 | 0.0 | 0.0 | 0.00 | 0.00 | 0.00 | 62 | 985.1 |
| 20260505051510 | 65 | 203 | 0.0 | 0.0 | 0.00 | 0.00 | 0.00 | 62 | 985.1 |
| 20260505051008 | 65 | 270 | 0.0 | 0.0 | 0.00 | 0.00 | 0.00 | 62 | 985.1 |
| 20260505050851 | 65 | 270 | 0.0 | 0.0 | 0.00 | 0.00 | 0.00 | 62 | 985.1 |
| 20260505050510 | 65 | 270 | 0.0 | 0.0 | 0.00 | 0.00 | 0.00 | 63 | 985.0 |
| 20260505041508 | 66 | 158 | 0.0 | 0.0 | 0.00 | 0.00 | 0.00 | 59 | 984.0 |
| 20260505041010 | 66 | 225 | 0.0 | 0.0 | 0.00 | 0.00 | 0.00 | 58 | 984.0 |
| 20260505040851 | 66 | 203 | 0.0 | 0.0 | 0.00 | 0.00 | 0.00 | 58 | 984.0 |
| 20260505035510 | 66 | 248 | 0.0 | 0.0 | 0.00 | 0.00 | 0.00 | 56 | 984.0 |
| 20260505035351 | 66 | 293 | 0.0 | 0.0 | 0.00 | 0.00 | 0.00 | 56 | 984.0 |
| 20260505034008 | 68 | 315 | 0.0 | 0.0 | 0.00 | 0.00 | 0.00 | 56 | 984.0 |
| 20260505033852 | 68 | 293 | 0.0 | 0.0 | 0.00 | 0.00 | 0.00 | 57 | 984.0 |
| 20260505033510 | 68 | 293 | 0.0 | 0.0 | 0.00 | 0.00 | 0.00 | 59 | 984.2 |
| 20260505033008 | 68 | 248 | 0.0 | 0.0 | 0.00 | 0.00 | 0.00 | 60 | 984.3 |
| 20260505032509 | 68 | 293 | 0.0 | 0.0 | 0.00 | 0.00 | 0.00 | 60 | 984.4 |
| 20260505032352 | 68 | 225 | 0.0 | 0.0 | 0.00 | 0.00 | 0.00 | 60 | 984.4 |
| 20260505032008 | 68 | 203 | 0.0 | 0.0 | 0.00 | 0.00 | 0.00 | 59 | 984.2 |
| 20260505031509 | 68 | 225 | 0.0 | 0.0 | 0.00 | 0.00 | 0.00 | 59 | 983.9 |
| 20260505031009 | 67 | 225 | 0.0 | 0.0 | 0.00 | 0.00 | 0.00 | 58 | 983.7 |
| 20260505030852 | 67 | 225 | 0.0 | 0.0 | 0.00 | 0.00 | 0.00 | 58 | 983.7 |
| 20260505030009 | 67 | 270 | 0.0 | 0.0 | 0.00 | 0.00 | 0.00 | 57 | 983.7 |
| 20260505025509 | 67 | 203 | 0.0 | 0.0 | 0.00 | 0.00 | 0.00 | 57 | 983.4 |
| 20260505025352 | 67 | 225 | 0.0 | 0.0 | 0.00 | 0.00 | 0.00 | 56 | 983.4 |
| 20260505025009 | 66 | 180 | 0.0 | 0.0 | 0.00 | 0.00 | 0.00 | 55 | 983.1 |
| 20260505024509 | 66 | 248 | 0.0 | 0.0 | 0.00 | 0.00 | 0.00 | 54 | 983.0 |
| 20260505024010 | 66 | 180 | 0.0 | 0.0 | 0.00 | 0.00 | 0.00 | 53 | 983.0 |
| 20260505023852 | 66 | 180 | 0.0 | 0.0 | 0.00 | 0.00 | 0.00 | 52 | 983.1 |
| 20260505023508 | 66 | 180 | 0.0 | 0.0 | 0.00 | 0.00 | 0.00 | 51 | 983.4 |
| 20260505023009 | 66 | 180 | 0.0 | 0.0 | 0.00 | 0.00 | 0.00 | 51 | 983.4 |
| 20260505022509 | 66 | 180 | 0.0 | 0.0 | 0.00 | 0.00 | 0.00 | 50 | 983.4 |
| 20260505022351 | 66 | 180 | 0.0 | 0.0 | 0.00 | 0.00 | 0.00 | 50 | 983.6 |
| 20260505022008 | 66 | 180 | 0.0 | 0.0 | 0.00 | 0.00 | 0.00 | 49 | 983.7 |
| 20260505021509 | 66 | 158 | 0.0 | 0.0 | 0.00 | 0.00 | 0.00 | 49 | 983.7 |
| 20260505020852 | 66 | 158 | 0.0 | 0.0 | 0.00 | 0.00 | 0.00 | 48 | 983.7 |
| 20260505020509 | 66 | 158 | 0.0 | 0.0 | 0.00 | 0.00 | 0.00 | 48 | 983.6 |
| 20260505020008 | 67 | 158 | 0.0 | 0.0 | 0.00 | 0.00 | 0.00 | 47 | 983.4 |